SCP
-0 0 0 -0 0 0 0 0 -0 -0 -0 -0 -0 -0 -0 -0 -0 0 0 0 0 0 0 0 0 -0 -0 -0 -0 -0 -0 -0 -0
-0 -0 -0 -0 0 0 0 0 -0 -0 -0 -0 -0 -0 0 0 0 0 -0 0 0 0 0 0 0 0 -0 -0 -0 -0 -0 0 -0
-0 -0 -0 0 0 0 0 0 0 -0 -0 -0 0 0 0 0 -0 -0 -0 -0 0 0 0 0 -0 0 -0 -0 -0 -0 -0 0 0
-0 -0 -0 0 0 0 0 0 -0 -0 -0 -0 0 -0 -0 0 0 0 0 0 0 0 0 0 -0 0 0 0 0 -0 -0 0 0
-0 -0 -0 0 0 0 -0 -0 -0 -0 -0 0 0 0 -0 -0 0 0 0 0 0 0 0 0 0 -0 0 0 -0 -0 -0 -0 -0
0 0 -0 -0 0 -0 -0 -0 -0 -0 -0 0 0 -0 -0 -0 -0 -0 -0 -0 0 0 0 0 0 -0 0 -0 0 0 0 -0 0
-0 -0 -0 -0 -0 -0 -0 -0 -0 -0 -0 0 -1 -1 -0 -0 -0 -0 -0 -0 -0 -0 -0 -0 -0 -0 -0 0 0 0 0 0 0
-0 -0 -0 -0 -0 -0 -0 -0 -0 -0 0 -0 -0 -0 0 -0 -0 0 0 -0 0 0 0 -0 -0 0 0 0 0 0 0 0 0
0 0 -0 -0 -0 -1 -1 -1 -1 -0 -0 -0 -0 -0 -0 -0 0 0 0 0 -0 -0 0 0 0 0 0 0 0 0 0 0 0
0 -0 -0 -0 -1 -0 -0 -1 -0 -0 -0 -0 -0 0 -0 -0 0 0 0 0 0 0 -0 -0 -0 0 -0 0 0 0 0 0 0
0 -0 -0 -0 -0 -0 -0 -0 -0 -0 -0 -0 -0 -0 -0 -0 -0 -0 -0 -0 -0 -0 -0 -0 -0 0 0 0 0 0 0 0 0
0 0 0 -0 -0 -0 -0 -0 0 -0 -0 -0 -0 -0 -0 -1 -1 -1 -0 -0 -0 -0 -0 -0 -0 0 0 0 0 0 0 0 0
0 0 0 0 -0 -0 -0 -0 0 0 -0 -0 0 0 -0 -0 -0 -0 -0 -0 -0 -0 -0 -0 0 0 0 0 0 0 0 0 0
1 0 0 0 0 -0 -0 0 0 0 0 0 0 1 0 -0 -0 -0 -0 0 0 -0 -0 -0 0 0 0 0 0 0 0 0 0
0 0 0 0 0 0 0 0 0 0 0 0 1 1 1 0 0 0 -0 0 -0 -0 -0 -0 0 0 0 0 0 0 0 0 0
0 0 0 0 1 1 1 0 0 0 -1 -1 1 1 1 1 0 0 0 0 -0 0 0 0 0 0 0 0 0 0 0 0 0
0 1 1 1 1 1 3 5 4 1 -4 -1 -0 1 1 1 -0 0 0 0 0 0 0 0 0 0 0 0 0 0 0 0 0
0 0 0 1 2 3 3 1 0 0 -0 1 1 2 1 0 0 0 0 0 0 0 0 0 0 0 0 0 0 0 0 0 0
0 0 0 0 1 1 1 1 0 1 1 2 2 2 1 1 0 0 0 0 0 0 0 0 0 0 0 0 0 0 0 0 0
0 0 0 0 1 1 2 1 1 1 -1 1 1 2 0 0 0 0 0 0 0 0 0 0 0 0 0 0 0 0 0 0 0
Wind_Speed_500mb
52 61 58 56 57 53 50 49 55 49 47 47 42 42 47 43 35 28 27 20 13 13 7 10 10 8 7 11 11 9 10 13 14
42 60 62 60 62 58 55 54 55 58 49 49 45 38 38 43 40 33 27 22 18 16 12 15 13 9 10 10 13 11 9 9 12
36 52 60 55 61 61 57 55 57 57 56 49 49 44 37 35 38 34 26 25 21 18 18 18 20 16 16 16 15 11 11 13 18
38 52 57 57 59 64 63 61 57 52 49 44 45 45 43 35 32 35 32 29 32 27 20 17 17 17 17 16 16 15 18 20 22
37 44 46 55 56 64 65 64 59 49 46 42 33 49 49 46 36 34 37 35 31 34 31 25 25 17 18 16 16 22 24 24 30
39 33 45 53 55 63 66 65 59 56 57 28 62 68 58 45 37 38 38 39 32 33 33 28 28 25 19 20 21 24 25 23 27
37 41 45 48 49 60 68 66 59 53 48 58 44 75 56 42 35 38 34 35 32 29 29 29 25 24 23 25 24 24 25 23 19
36 43 47 53 56 62 63 61 53 44 48 64 44 55 48 33 24 29 35 33 32 28 25 26 24 23 22 16 19 19 10 8 13
45 49 55 52 57 61 64 59 55 46 49 39 43 51 43 32 23 26 34 31 30 28 21 18 18 16 13 13 5 4 8 12 16
51 54 54 61 67 67 63 60 56 55 54 43 55 47 39 32 29 30 29 28 27 26 21 18 19 15 12 7 3 3 6 17 22
39 51 48 57 62 65 61 62 66 64 53 45 46 45 34 30 27 23 27 30 26 24 25 22 19 14 14 8 5 2 8 23 32
39 44 51 54 56 59 67 78 76 65 57 55 43 41 35 28 25 23 26 28 30 27 26 26 24 18 12 9 8 7 14 26 33
25 32 48 53 55 61 74 92 79 69 67 43 57 47 43 37 29 25 25 30 28 30 30 31 25 18 12 12 13 12 16 25 25
9 17 42 49 56 67 84 97 96 78 66 55 54 53 43 37 31 27 30 33 37 39 38 31 22 17 15 16 13 14 19 22 23
14 23 36 47 51 55 79 95 93 80 74 58 41 51 46 39 33 38 40 41 44 41 34 27 20 17 16 15 11 15 18 23 26
23 28 35 39 45 52 68 89 85 75 40 59 49 46 50 42 40 43 44 47 45 38 30 23 19 16 15 14 15 18 20 24 29
29 31 34 39 48 53 57 65 58 61 52 62 61 46 52 50 53 54 51 47 40 31 24 23 19 17 17 18 18 16 20 26 37
32 35 39 57 66 70 74 80 43 26 88 65 51 55 63 68 66 60 57 50 41 32 26 25 21 20 20 17 16 19 26 35 40
29 36 40 46 43 51 60 64 61 64 74 60 63 68 72 75 72 65 56 45 39 33 30 28 25 21 18 15 17 24 32 36 34
26 27 31 30 29 27 34 52 74 73 68 68 61 61 61 56 41 52 50 42 39 37 37 31 23 19 16 13 17 27 32 30 25
Wind_Direction_500mb
212 203 200 201 209 215 220 218 214 214 216 214 214 219 221 218 217 225 214 218 220 198 198 202 244 256 283 259 251 268 273 250 260
193 195 196 200 206 212 217 219 218 217 216 216 214 218 220 223 221 219 216 221 229 221 227 224 234 249 278 279 248 256 286 274 271
185 189 195 196 203 211 215 219 220 220 222 219 218 215 217 220 226 227 226 226 237 244 235 244 246 254 261 256 256 266 271 262 263
185 184 189 193 200 210 215 220 222 220 222 222 223 215 217 216 222 227 233 243 242 245 243 242 258 268 250 260 272 276 275 273 280
196 190 182 192 198 208 212 220 221 218 220 218 240 231 216 216 215 227 230 233 248 245 246 252 257 267 266 270 269 278 278 279 283
197 178 185 192 196 204 211 217 221 213 207 149 226 237 221 215 216 230 232 234 238 246 244 252 259 260 260 255 273 286 292 298 297
200 189 193 193 191 202 211 216 219 212 204 206 227 216 213 217 221 229 230 230 230 240 242 244 251 248 257 271 280 292 300 305 299
197 188 190 196 191 200 203 212 212 204 195 200 210 210 208 220 222 229 225 225 225 234 235 238 234 238 253 264 286 301 322 352 8
195 196 199 196 194 198 201 205 202 204 207 208 204 206 201 215 234 238 214 214 215 222 220 216 212 225 250 281 296 14 36 4 2
197 203 198 197 200 198 200 199 193 186 203 204 194 196 199 219 238 206 201 205 206 210 212 216 208 224 243 209 189 17 25 355 336
210 209 203 202 197 196 195 190 186 191 195 186 170 175 200 204 191 193 192 195 198 206 217 214 214 206 206 232 251 292 344 348 339
230 218 211 211 204 195 185 178 177 191 192 192 180 185 191 190 193 200 192 194 204 211 205 194 192 195 211 231 248 272 320 347 352
232 213 216 206 200 193 185 178 179 184 184 182 186 189 195 200 204 204 205 203 202 189 180 180 193 207 224 243 250 275 325 343 356
221 204 205 202 204 203 191 183 184 188 198 205 192 190 196 196 196 197 203 201 194 182 180 186 199 219 232 237 247 303 318 337 343
147 163 179 196 195 199 193 190 193 199 205 207 186 184 192 193 190 197 192 193 183 184 189 194 210 220 235 238 272 299 313 327 333
127 140 155 177 182 185 188 197 204 214 225 213 187 196 188 182 191 195 184 186 190 188 193 206 213 226 236 249 273 291 311 326 331
138 146 151 159 171 175 176 186 192 213 260 237 220 200 189 183 185 179 182 188 192 196 210 216 220 232 238 247 264 287 310 319 324
156 154 154 157 157 158 163 170 215 300 235 230 211 197 195 182 180 182 188 189 193 202 213 218 230 230 229 243 269 297 313 321 325
160 165 159 176 197 207 214 216 215 199 198 189 189 189 190 183 179 187 187 194 196 205 216 215 216 225 231 253 287 306 314 320 324
186 201 206 208 221 242 210 209 202 198 178 175 174 194 203 176 184 201 189 199 211 211 201 197 198 214 235 268 301 310 313 315 321
Wind_Speed_850mb
52 61 58 56 57 53 50 49 55 49 47 47 42 42 47 43 35 28 27 20 13 13 7 10 10 8 7 11 11 9 10 13 14
42 60 62 60 62 58 55 54 55 58 49 49 45 38 38 43 40 33 27 22 18 16 12 15 13 9 10 10 13 11 9 9 12
36 52 60 55 61 61 57 55 57 57 56 49 49 44 37 35 38 34 26 25 21 18 18 18 20 16 16 16 15 11 11 13 18
38 52 57 57 59 64 63 61 57 52 49 44 45 45 43 35 32 35 32 29 32 27 20 17 17 17 17 16 16 15 18 20 22
37 44 46 55 56 64 65 64 59 49 46 42 33 49 49 46 36 34 37 35 31 34 31 25 25 17 18 16 16 22 24 24 30
39 33 45 53 55 63 66 65 59 56 57 28 62 68 58 45 37 38 38 39 32 33 33 28 28 25 19 20 21 24 25 23 27
37 41 45 48 49 60 68 66 59 53 48 58 44 75 56 42 35 38 34 35 32 29 29 29 25 24 23 25 24 24 25 23 19
36 43 47 53 56 62 63 61 53 44 48 64 44 55 48 33 24 29 35 33 32 28 25 26 24 23 22 16 19 19 10 8 13
45 49 55 52 57 61 64 59 55 46 49 39 43 51 43 32 23 26 34 31 30 28 21 18 18 16 13 13 5 4 8 12 16
51 54 54 61 67 67 63 60 56 55 54 43 55 47 39 32 29 30 29 28 27 26 21 18 19 15 12 7 3 3 6 17 22
39 51 48 57 62 65 61 62 66 64 53 45 46 45 34 30 27 23 27 30 26 24 25 22 19 14 14 8 5 2 8 23 32
39 44 51 54 56 59 67 78 76 65 57 55 43 41 35 28 25 23 26 28 30 27 26 26 24 18 12 9 8 7 14 26 33
25 32 48 53 55 61 74 92 79 69 67 43 57 47 43 37 29 25 25 30 28 30 30 31 25 18 12 12 13 12 16 25 25
9 17 42 49 56 67 84 97 96 78 66 55 54 53 43 37 31 27 30 33 37 39 38 31 22 17 15 16 13 14 19 22 23
14 23 36 47 51 55 79 95 93 80 74 58 41 51 46 39 33 38 40 41 44 41 34 27 20 17 16 15 11 15 18 23 26
23 28 35 39 45 52 68 89 85 75 40 59 49 46 50 42 40 43 44 47 45 38 30 23 19 16 15 14 15 18 20 24 29
29 31 34 39 48 53 57 65 58 61 52 62 61 46 52 50 53 54 51 47 40 31 24 23 19 17 17 18 18 16 20 26 37
32 35 39 57 66 70 74 80 43 26 88 65 51 55 63 68 66 60 57 50 41 32 26 25 21 20 20 17 16 19 26 35 40
29 36 40 46 43 51 60 64 61 64 74 60 63 68 72 75 72 65 56 45 39 33 30 28 25 21 18 15 17 24 32 36 34
26 27 31 30 29 27 34 52 74 73 68 68 61 61 61 56 41 52 50 42 39 37 37 31 23 19 16 13 17 27 32 30 25
Wind_Direction_850mb
212 203 200 201 209 215 220 218 214 214 216 214 214 219 221 218 217 225 214 218 220 198 198 202 244 256 283 259 251 268 273 250 260
193 195 196 200 206 212 217 219 218 217 216 216 214 218 220 223 221 219 216 221 229 221 227 224 234 249 278 279 248 256 286 274 271
185 189 195 196 203 211 215 219 220 220 222 219 218 215 217 220 226 227 226 226 237 244 235 244 246 254 261 256 256 266 271 262 263
185 184 189 193 200 210 215 220 222 220 222 222 223 215 217 216 222 227 233 243 242 245 243 242 258 268 250 260 272 276 275 273 280
196 190 182 192 198 208 212 220 221 218 220 218 240 231 216 216 215 227 230 233 248 245 246 252 257 267 266 270 269 278 278 279 283
197 178 185 192 196 204 211 217 221 213 207 149 226 237 221 215 216 230 232 234 238 246 244 252 259 260 260 255 273 286 292 298 297
200 189 193 193 191 202 211 216 219 212 204 206 227 216 213 217 221 229 230 230 230 240 242 244 251 248 257 271 280 292 300 305 299
197 188 190 196 191 200 203 212 212 204 195 200 210 210 208 220 222 229 225 225 225 234 235 238 234 238 253 264 286 301 322 352 8
195 196 199 196 194 198 201 205 202 204 207 208 204 206 201 215 234 238 214 214 215 222 220 216 212 225 250 281 296 14 36 4 2
197 203 198 197 200 198 200 199 193 186 203 204 194 196 199 219 238 206 201 205 206 210 212 216 208 224 243 209 189 17 25 355 336
210 209 203 202 197 196 195 190 186 191 195 186 170 175 200 204 191 193 192 195 198 206 217 214 214 206 206 232 251 292 344 348 339
230 218 211 211 204 195 185 178 177 191 192 192 180 185 191 190 193 200 192 194 204 211 205 194 192 195 211 231 248 272 320 347 352
232 213 216 206 200 193 185 178 179 184 184 182 186 189 195 200 204 204 205 203 202 189 180 180 193 207 224 243 250 275 325 343 356
221 204 205 202 204 203 191 183 184 188 198 205 192 190 196 196 196 197 203 201 194 182 180 186 199 219 232 237 247 303 318 337 343
147 163 179 196 195 199 193 190 193 199 205 207 186 184 192 193 190 197 192 193 183 184 189 194 210 220 235 238 272 299 313 327 333
127 140 155 177 182 185 188 197 204 214 225 213 187 196 188 182 191 195 184 186 190 188 193 206 213 226 236 249 273 291 311 326 331
138 146 151 159 171 175 176 186 192 213 260 237 220 200 189 183 185 179 182 188 192 196 210 216 220 232 238 247 264 287 310 319 324
156 154 154 157 157 158 163 170 215 300 235 230 211 197 195 182 180 182 188 189 193 202 213 218 230 230 229 243 269 297 313 321 325
160 165 159 176 197 207 214 216 215 199 198 189 189 189 190 183 179 187 187 194 196 205 216 215 216 225 231 253 287 306 314 320 324
186 201 206 208 221 242 210 209 202 198 178 175 174 194 203 176 184 201 189 199 211 211 201 197 198 214 235 268 301 310 313 315 321